Powrót do katalogu

THOR ABLESTAR DEB

AktywnyLEO
NORAD 145·DEBRIS·🇺🇸 United States

Wystrzelony Jun 29, 1961 z Cape Canaveral Space Force Station

Loading…

Następne Przeloty (najbliższe 24 godziny)

TLE

ŚwieżeSource: Space-Track

Epoka: Sep 7, 2026, 07:17 UTC

1 00145U 61015AF  26250.30352978  .00000010  00000-0  55592-4 0  9996
2 00145  66.9265 179.1447 0068498 238.4349 121.0037 14.03334083328238

Śledź THOR ABLESTAR DEB w czasie rzeczywistym z AllMySat

Download on the App Store